Regional Weather Roundup
Issued by NWS

Home | Current Version | Previous Version | Text Only | Print | Product List | Glossary Off
Versions: 1 2 3 4 5 6 7 8 9 10 11 12 13 14 15 16 17 18 19 20 21 22 23 24 25 26 27 28 29 30 31 32 33 34 35 36 37 38 39 40 41 42 43 44 45 46 47 48 49 50

000
ASUS44 KMEG 221210
RWRTN
TENNESSEE HOURLY STATE WEATHER ROUNDUP
NATIONAL WEATHER SERVICE MEMPHIS TN
600 AM CST SUN JAN 22 2017

TNZ002-004-019-021-049-052-054-088>092-221300-
WEST TENNESSEE

CITY           SKY/WX    TMP DP  RH WIND       PRES   REMARKS
MEMPHIS INTL   CLOUDY    56  55  97 S7        29.40R
NWS MEMPHIS      N/A     55 N/A N/A MISG        N/A
JACKSON        CLOUDY    55  55 100 E5        29.43R
DYERSBURG      CLOUDY    55  52  88 CALM      29.45R
UNION CITY     PTCLDY   N/A N/A N/A CALM      29.44R
PARIS          CLOUDY    52  48  87 CALM      29.45F
HUNTINGDON     MOCLDY    55  52  88 E5        29.44F
$$

TNZ008-025-027-028-033-062-065-066-221300-
NORTH MIDDLE TENNESSEE

CITY           SKY/WX    TMP DP  RH WIND       PRES   REMARKS
NASHVILLE      CLOUDY    53  49  86 N8        29.46F
PORTLAND       CLOUDY    55  52  88 SE3       29.48S
CLARKSVILLE    CLOUDY    53  48  83 CALM      29.48R
SMYRNA         LGT RAIN  55  53  93 SE6       29.47S
GALLATIN       CLOUDY    55  52  88 NE5       29.50S
CROSSVILLE     RAIN      52  50  93 SE6       29.50S
$$

TNZ061-075-076-078-094-096-097-221300-
SOUTH MIDDLE TENNESSEE

CITY           SKY/WX    TMP DP  RH WIND       PRES   REMARKS
TULLAHOMA      PTCLDY    54  52  94 CALM      29.46R
WINCHESTER     MOCLDY    54  54 100 CALM      29.48R
MCMINNVILLE    CLOUDY    54  54 100 CALM      29.46F
COLUMBIA       CLOUDY   N/A N/A N/A S8        29.42S
SHELBYVILLE    CLOUDY    55  55 100 SW3       29.45F
$$

TNZ017-018-042-046-047-221300-
NORTHEAST TENNESSEE

CITY           SKY/WX    TMP DP  RH WIND       PRES   REMARKS
TRI CITIES     CLOUDY    49  47  93 NE3       29.61R
ELIZABETHTON   CLOUDY    52  50  93 CALM      29.61R
$$

TNZ012-013-036-069-073-074-221300-
CENTRAL EAST TENNESSEE

CITY           SKY/WX    TMP DP  RH WIND       PRES   REMARKS
KNOXVILLE      CLOUDY    51  49  92 NE8       29.47F
OAK RIDGE      LGT RAIN  49  47  93 CALM      29.51F
GATLINBURG     CLEAR     46  46 100 SE5       29.50F
MORRISTOWN     MOCLDY    52  52 100 E7        29.50F
JACKSBORO      CLOUDY    46  45  93 CALM      29.54F FOG
$$

TNZ083-085-099-221300-
SOUTHEAST TENNESSEE

CITY           SKY/WX    TMP DP  RH WIND       PRES   REMARKS
CHATTANOOGA    CLOUDY    59  54  83 S9        29.47R
$$

SKY/WX REPORTED AS FAIR MEANS FEW OR NO CLOUDS BELOW
12 THOUSAND FEET.




USA.gov is the U.S. government's official web portal to all federal, state and local government web resources and services.